Regional Weather Roundup
Issued by NWS Portland, ME

Current Version | Previous Version | Text Only | Print | Product List | Glossary Off
Versions: 1 2 3 4 5 6 7 8 9 10 11 12 13 14 15 16 17 18 19 20 21 22 23 24 25 26 27 28 29 30 31 32 33 34 35 36 37 38 39 40 41 42 43 44 45 46 47 48 49 50
000 ASUS41 KGYX 220505 RWRGYX WEATHER ROUNDUP FOR MAINE AND NEW HAMPSHIRE NATIONAL WEATHER SERVICE GRAY ME 100 AM EDT FRI JUN 22 2018 MEZ002-005-006-010-012-015-018-020-021-024-026-027-029-220600- MAINE CITY SKY/WX TMP DP RH WIND PRES REMARKS PORTLAND FAIR 56 50 80 VRB5 29.95R SANFORD FAIR 54 48 80 N5 29.96R BAR HARBOR FAIR 52 44 74 N6 29.96R WISCASSET FAIR 50 49 96 CALM 29.97R ROCKLAND FAIR 60 43 53 N3 29.94R FRYEBURG FAIR 44 44 100 W3 29.99R LEWISTONAUBURN FAIR 54 42 64 NW5 29.97R AUGUSTA FAIR 55 41 59 N5 29.97R WATERVILLE FAIR 52 41 66 N6 29.96R BANGOR FAIR 54 43 66 N6 29.97R GREENVILLE N/A 50 42 74 N3 29.97R MILLINOCKET FAIR 47 41 80 CALM 29.99R HOULTON FAIR 39 38 96 CALM 29.96R PRESQUE ISLE FAIR 40 39 97 CALM 29.98R FRENCHVILLE FAIR 47 36 65 W7 29.96R CARIBOU FAIR 43 37 79 CALM 29.96R $$ NHZ002-005-008-009-011-012-014-220600- NEW HAMPSHIRE CITY SKY/WX TMP DP RH WIND PRES REMARKS PORTSMOUTH CLEAR 60 53 78 N9 29.92R ROCHESTER FAIR 55 52 89 NW6 29.94R NASHUA FAIR 61 47 59 W9 29.94R MANCHESTER FAIR 64 45 49 N8 29.93R CONCORD FAIR 51 46 83 CALM 29.96R LACONIA FAIR 51 46 83 CALM 29.98R PLYMOUTH N/A 46 44 91 CALM 29.99R BERLIN FAIR 39 38 96 CALM 30.02R WHITEFIELD FAIR 42 40 92 CALM 30.01S JAFFREY FAIR 53 46 77 CALM 29.97R KEENE FAIR 49 45 86 CALM 29.97R LEBANON FAIR 49 41 74 CALM 30.00R MT WASHINGTON CLEAR 39 14 35 N3 N/A $$ VTZ005-007-008-220600- VERMONT CITY SKY/WX TMP DP RH WIND PRES REMARKS ST JOHNSBURY N/A 47 44 90 MISG 30.00R MONTPELIER FAIR 45 42 89 CALM 30.05R BURLINGTON FAIR 52 44 74 CALM 30.00R $$ MAZ007-012-024-CTZ003-RIZ002-NYZ038-NYZ072-220600- SOUTHERN NEW ENGLAND AND NY CITY SKY/WX TMP DP RH WIND PRES REMARKS BOSTON FAIR 66 55 67 N6 29.91R WORCESTER FAIR 61 55 81 N8 29.94R NANTUCKET FOG 56 55 97 N6 29.89R VSB 1/4 PROVIDENCE FAIR 63 62 97 CALM 29.91R HARTFORD FAIR 64 48 56 N9 29.91R ALBANY FAIR 60 40 47 N8 29.97R NEW YORK CITY MOCLDY 72 65 78 E9 29.86R $$ ANZ081-ANZ082-ANZ150-NHZ014-MEZ023>029-220600- COASTAL MARINE OBSERVATIONS STATION/POSITION TIME TEMP WIND PRES WAVE AIR SEA DIR/SP/G HT/PER (UTC) (F) (DEG/KT/KT) (MB) (FT/S) MOUNT DESERT ROC 0500 54 310/ 6/ 7 1014.0R MATINICUS ROCK 0400 58 310/ 7/ 8 1013.0R ISLE OF SHOALS 0400 62 30/ 9/ 9 1012.7R JEFFREYS LEDGE 0436 59 N/A 1/ 8 $$ .............KEY.............. WCI - WIND CHILL TC - TEMPERATURE IN CELSIUS VSB - VISIBILITY IN MILES HX - HEAT INDEX FAIR- INDICATES FEW OR NO CLOUDS BELOW 12,000 FT, WITH NO SIGNIFICANT WEATHER AND/OR OBSTRUCTIONS TO VISIBILITY.

USA.gov is the U.S. government's official web portal to all federal, state and local government web resources and services.